{"data":{"norad_id":59730,"epoch":"2026-09-21T09:56:56.520384Z","epoch_age_seconds":92319,"freshness":"FRESH","line1":"1 59730U 24090A   26264.41454306  .00050635  00000+0  14252-2 0  9990","line2":"2 59730  42.9987 155.5520 0010556 218.6006 141.4095 15.35658879133400","mean_motion":15.35658879,"eccentricity":0.0010556,"inclination_deg":42.9987,"raan_deg":155.552,"arg_perigee_deg":218.6006,"mean_anomaly_deg":141.4095,"bstar":0.0014252,"rev_number":13340,"period_min":93.770824998434,"perigee_km":451.74689885204,"apogee_km":466.18138678476,"semimajor_km":6837.1011428184,"source":"CELESTRAK","updated_at":"2026-09-22T09:00:49.061654Z"}}